Location: Caltech
(34.1382°N, 118.1253°W)
Time: 09:25:06
(UTC-07:00)

OAO 2 Rocket - Visible Passes

Search period start: 20 September 2017 00:00
Search period end: 30 September 2017 00:00
Orbit: 676 x 747 km, 35.0° (Epoch: 19 September)

Date Brightness Start Highest point End Pass type
(mag) Time Alt. Az. Time Alt. Az. Time Alt. Az.
20 Sep 4.7 20:26:51 10° W 20:31:33 32° SSW 20:33:32 24° S visible
21 Sep 4.3 19:28:52 10° W 19:33:55 44° SSW 19:38:56 10° SE visible
21 Sep 5.8 21:15:47 10° WSW 21:18:05 13° SW 21:18:10 13° SW visible
22 Sep 5.4 20:16:48 10° WSW 20:20:35 20° SSW 20:23:55 12° S visible
23 Sep 5.1 19:18:30 10° W 19:23:02 29° SSW 19:27:34 10° SSE visible
24 Sep 6.0 20:08:06 10° SW 20:09:34 11° SW 20:11:01 10° SSW visible
25 Sep 5.8 19:08:36 10° WSW 19:12:04 18° SSW 19:15:31 10° S visible
